Location: Geremba
(10.4250°N, 67.2394°W)
Time: 13:05:49
(UTC+00:00)

Delta 202 - Pass Details

Date: 23 May 2024
Orbit: 781 x 2712 km, 18.5° (Epoch: 24 June)

Event Time Altitude Azimuth Distance (km) Brightness Sun altitude
Rises 01:02:00 0° 257° (WSW) 3,583 7.5 -31.1°
Reaches altitude 10° 01:04:16 10° 258° (WSW) 2,783 6.9 -31.5°
Maximum altitude 01:11:04 82° 345° (NNW) 1,309 4.5 -33.0°
Enters shadow 01:12:10 70° 53° (NE) 1,422 4.6 -33.2°
